Weather History for Crestview, FL

Change the Weather History Date:

Sunday, December 29, 2013

  Actual Average Record
Temperature  
Mean Temperature 45 °F -  
Max Temperature 53 °F - - ()
Min Temperature 37 °F - - ()
Degree Days  
Heating Degree Days 20    
Moisture  
Dew Point 44 °F    
Average Humidity 96    
Maximum Humidity 100    
Minimum Humidity 76    
Precipitation  
Precipitation 0.00 in - - ()
Sea Level Pressure  
Sea Level Pressure 30.03 in    
Wind  
Wind Speed 6 mph (NNW)    
Max Wind Speed 14 mph    
Max Gust Speed 18 mph    
Visibility 5 miles    
Events Fog    
T = Trace of Precipitation, MM = Missing Value Source: NWS Daily Summary

Daily Weather History Graph

Daily Weather History Graph

Search for Another Location

Airport:

Trip Planner

Search our weather history database for the weather conditions in past years. The results will help you decide how hot, cold, wet, or windy it might be!

Date:

Astronomy

Dec. 29, 2013 Rise Set
Actual Time 6:42 AM CST 4:54 PM CST
Civil Twilight 6:16 AM CST 5:20 PM CST
Nautical Twilight 5:46 AM CST 5:50 PM CST
Astronomical Twilight 5:16 AM CST 6:19 PM CST
Moon 3:31 AM CST (12/29) 2:27 PM CST (12/29)
Length of Visible Light 11h 04m
Length of Day
10h 11m
Waning Crescent, 11% of the Moon is Illuminated
Dec 29
Waning Crescent
Jan 1
New
Jan 7
First Quarter
Jan 15
Full
Jan 23
Last Quarter

Hourly Weather History & Observations

Time (CST) Temp. Windchill Dew Point Humidity Pressure Visibility Wind Dir Wind Speed Gust Speed Precip Events Conditions
12:03 AM 53.6 °F - 53.6 °F 100% 29.87 in 1.0 mi WNW 5.8 mph - N/A   Mist
12:08 AM 53.6 °F - 53.6 °F 100% 29.88 in 1.2 mi NW 5.8 mph - N/A   Overcast
12:13 AM 53.6 °F - 53.6 °F 100% 29.88 in 1.5 mi NW 6.9 mph - N/A   Overcast
12:33 AM 51.8 °F - 51.8 °F 100% 29.89 in 1.5 mi WNW 10.4 mph - N/A   Overcast
12:38 AM 51.8 °F - 51.8 °F 100% 29.89 in 1.2 mi WNW 11.5 mph - N/A   Overcast
12:43 AM 51.8 °F - 51.8 °F 100% 29.89 in 1.0 mi WNW 13.8 mph - N/A   Mist
12:58 AM 50.9 °F - 50.7 °F 99% 29.90 in 1.0 mi NW 11.5 mph - N/A   Mist
1:03 AM 50.0 °F - 50.0 °F 100% 29.90 in 1.2 mi WNW 10.4 mph 18.4 mph N/A   Overcast
1:13 AM 50.0 °F - 50.0 °F 100% 29.90 in 1.5 mi WNW 9.2 mph - N/A   Overcast
1:23 AM 50.0 °F - 50.0 °F 100% 29.91 in 2.5 mi NW 10.4 mph - N/A   Overcast
1:28 AM 50.0 °F - 50.0 °F 100% 29.91 in 3.0 mi NW 9.2 mph - N/A   Overcast
1:58 AM 48.7 °F - 48.4 °F 99% 29.92 in 4.0 mi NW 6.9 mph - N/A   Overcast
2:58 AM 48.4 °F - 48.2 °F 99% 29.91 in 6.0 mi NW 9.2 mph - N/A   Overcast
3:58 AM 48.4 °F - 48.2 °F 99% 29.95 in 10.0 mi NW 5.8 mph - N/A   Overcast
4:08 AM 48.2 °F - 48.2 °F 100% 29.94 in 10.0 mi WNW 9.2 mph - N/A   Overcast
4:28 AM 48.2 °F - 48.2 °F 100% 29.94 in 10.0 mi NW 10.4 mph - N/A   Overcast
4:58 AM 48.2 °F - 47.8 °F 99% 29.94 in 10.0 mi NNW 4.6 mph - N/A   Overcast
5:58 AM 47.8 °F - 47.7 °F 99% 29.97 in 10.0 mi NNW 4.6 mph - N/A   Overcast
6:58 AM 47.7 °F - 47.5 °F 99% 30.00 in 10.0 mi NNW 6.9 mph - N/A   Overcast
7:58 AM 47.8 °F - 47.1 °F 97% 30.03 in 10.0 mi NNW 8.1 mph - N/A   Overcast
8:18 AM 48.2 °F - 46.4 °F 93% 30.03 in 10.0 mi NNW 8.1 mph - N/A   Overcast
8:35 AM 48.2 °F - 48.2 °F 100% 30.04 in 10.0 mi NNW 8.1 mph - N/A   Overcast
8:58 AM 48.9 °F - 47.3 °F 94% 30.06 in 10.0 mi NW 8.1 mph - N/A   Overcast
9:58 AM 49.5 °F - 47.5 °F 93% 30.07 in 10.0 mi NNW 9.2 mph - N/A   Overcast
10:58 AM 51.3 °F - 47.3 °F 86% 30.06 in 10.0 mi NNW 11.5 mph - N/A   Overcast
11:13 AM 51.8 °F - 46.4 °F 82% 30.05 in 10.0 mi North 9.2 mph - N/A   Overcast
11:58 AM 52.3 °F - 46.6 °F 81% 30.04 in 10.0 mi North 10.4 mph - N/A   Overcast
12:23 PM 53.6 °F - 46.4 °F 77% 30.01 in 10.0 mi NNW 10.4 mph - N/A   Overcast
12:58 PM 53.1 °F - 46.6 °F 79% 30.02 in 10.0 mi North 9.2 mph - N/A   Overcast
1:58 PM 52.7 °F - 46.4 °F 79% 30.02 in 10.0 mi North 9.2 mph - N/A   Overcast
2:58 PM 52.7 °F - 46.2 °F 79% 30.02 in 10.0 mi North 8.1 mph - N/A   Overcast
3:58 PM 52.5 °F - 45.3 °F 76% 30.03 in 10.0 mi North 8.1 mph - N/A   Overcast
4:13 PM 51.8 °F - 44.6 °F 76% 30.03 in 10.0 mi North 8.1 mph - N/A   Overcast
4:58 PM 51.4 °F - 44.8 °F 78% 30.05 in 10.0 mi North 4.6 mph - N/A   Mostly Cloudy
5:03 PM 50.0 °F - 44.6 °F 82% 30.04 in 10.0 mi North 3.5 mph - N/A   Scattered Clouds
5:58 PM 47.1 °F - 44.4 °F 90% 30.06 in 10.0 mi Calm Calm - N/A   Clear
6:58 PM 44.4 °F - 42.8 °F 94% 30.08 in 10.0 mi Calm Calm - N/A   Clear
7:58 PM 42.6 °F - 41.9 °F 97% 30.09 in 6.0 mi Calm Calm - N/A   Clear
8:48 PM 39.2 °F 37.0 °F 39.2 °F 100% 30.09 in 1.8 mi NNW 3.5 mph - N/A   Clear
8:53 PM 41.0 °F 39.0 °F 39.2 °F 93% 30.09 in 0.8 mi NNW 3.5 mph - N/A   Clear
8:58 PM 40.5 °F 37.3 °F 40.1 °F 99% 30.10 in 0.5 mi NNW 4.6 mph - N/A Fog Fog
9:08 PM 41.0 °F 38.0 °F 41.0 °F 100% 30.09 in 1.0 mi NNW 4.6 mph - N/A   Clear
9:13 PM 41.0 °F 39.0 °F 41.0 °F 100% 30.10 in 1.8 mi NNW 3.5 mph - N/A   Clear
9:18 PM 39.2 °F - 39.2 °F 100% 30.10 in 2.5 mi NNW 2.3 mph - N/A   Clear
9:28 PM 41.0 °F - 41.0 °F 100% 30.10 in 1.0 mi North 2.3 mph - N/A   Clear
9:33 PM 41.0 °F 39.0 °F 41.0 °F 100% 30.10 in 0.8 mi NNW 3.5 mph - N/A   Clear
9:38 PM 41.0 °F - 41.0 °F 100% 30.10 in 1.0 mi NNW 2.3 mph - N/A   Clear
9:43 PM 41.0 °F - 41.0 °F 100% 30.10 in 1.2 mi NNW 1.2 mph - N/A   Clear
9:48 PM 41.0 °F - 41.0 °F 100% 30.10 in 1.2 mi NNW 1.2 mph - N/A   Clear
9:53 PM 41.0 °F - 41.0 °F 100% 30.10 in 2.0 mi Calm Calm - N/A   Clear
9:58 PM 41.5 °F - 41.2 °F 99% 30.12 in 3.0 mi Calm Calm - N/A   Clear
10:03 PM 41.0 °F - 41.0 °F 100% 30.11 in 2.5 mi Calm Calm - N/A   Clear
10:08 PM 41.0 °F - 41.0 °F 100% 30.11 in 4.0 mi Calm Calm - N/A   Clear
10:33 PM 41.0 °F - 41.0 °F 100% 30.11 in 2.0 mi North 2.3 mph - N/A   Clear
10:43 PM 41.0 °F - 39.2 °F 93% 30.10 in 6.0 mi North 2.3 mph - N/A   Clear
10:48 PM 39.2 °F - 39.2 °F 100% 30.10 in 2.5 mi North 2.3 mph - N/A   Clear
10:53 PM 39.2 °F - 39.2 °F 100% 30.10 in 0.8 mi North 1.2 mph - N/A   Clear
10:58 PM 38.8 °F - 38.5 °F 99% 30.11 in 0.8 mi NNW 2.3 mph - N/A   Clear
11:03 PM 39.2 °F 37.0 °F 39.2 °F 100% 30.10 in 1.8 mi NNW 3.5 mph - N/A   Clear
11:08 PM 39.2 °F 37.0 °F 39.2 °F 100% 30.11 in 9.0 mi NNW 3.5 mph - N/A   Clear
11:13 PM 39.2 °F 37.0 °F 37.4 °F 93% 30.11 in 2.5 mi NNW 3.5 mph - N/A   Clear
11:18 PM 37.4 °F - 37.4 °F 100% 30.11 in 1.0 mi NNW 2.3 mph - N/A   Clear
11:23 PM 37.4 °F - 37.4 °F 100% 30.11 in 1.2 mi NNW 2.3 mph - N/A   Clear
11:28 PM 37.4 °F - 37.4 °F 100% 30.10 in 2.0 mi NNW 2.3 mph - N/A   Clear
11:33 PM 37.4 °F - 37.4 °F 100% 30.11 in 3.0 mi Calm Calm - N/A   Clear
11:53 PM 39.2 °F - 39.2 °F 100% 30.11 in 2.5 mi Calm Calm - N/A   Clear
11:58 PM 39.9 °F - 39.7 °F 99% 30.12 in 4.0 mi Calm Calm - N/A   Clear